Location: Amsterdam
(42.9386°N, 74.1886°W)
Time: 22:28:59
(UTC-04:00)

OTV 5 (USA 277) - Visible Passes

Search period start: 17 August 2018 00:00
Search period end: 27 August 2018 00:00
Orbit: 316 x 317 km, 54.5° (Epoch: 30 July)

Date Brightness Start Highest point End Pass type
(mag) Time Alt. Az. Time Alt. Az. Time Alt. Az.
17 Aug ? 04:30:00 28° NW 04:31:15 86° SW 04:33:57 10° SE visible
17 Aug ? 20:49:27 10° S 20:51:34 20° SE 20:52:38 16° E visible
17 Aug ? 22:23:18 10° W 22:23:40 13° W 22:23:40 13° W visible
18 Aug ? 04:46:58 18° S 04:46:58 18° S 04:47:58 10° SSE visible
18 Aug ? 21:03:12 10° SW 21:05:52 59° SE 21:08:33 10° ENE visible
18 Aug ? 22:38:32 10° WNW 22:39:32 15° NW 22:39:32 15° NW visible
19 Aug ? 21:17:41 10° WSW 21:20:19 47° NW 21:22:57 10° NE visible
19 Aug ? 22:54:20 10° NW 22:54:31 10° NNW 22:54:31 10° NNW visible
20 Aug ? 21:32:40 10° W 21:34:53 22° NNW 21:37:07 10° NNE visible
21 Aug ? 21:48:09 10° NW 21:49:36 13° NNW 21:51:04 10° NNE visible
22 Aug ? 20:26:56 10° W 20:29:24 31° NNW 20:31:53 10° NE visible
23 Aug ? 20:42:10 10° WNW 20:44:03 17° NNW 20:45:57 10° NNE visible
24 Aug ? 20:57:55 10° NW 20:58:49 11° NNW 20:59:43 10° N visible
